ATLAS 5 CENTAUR DEB, 43985

Orbit data source: Space-Track

ATLAS 5 CENTAUR DEB, 43985 is space debris in HEO originally from a launch on Wed, 17 Sep 2014 UTC launched from the Air Force Eastern Test Range (AFETR). Debris objects in space refer to the collection of defunct objects orbiting the Earth. Examples of debris include non-operational satellites, rocket bodies, and fragments generated from explosions, collisions, or faulty payload assembly.

Loading next visibility...
Identifier
43985, 2014-055AQ
Orbit
HEO
Country
Flag of USUS
Related business
Flag of USUnited Launch Alliance/Lockheed Martin (US)
Manufacturer
Unknown
Mission
Spacecraft
Bus & Motor
Unknown
Mass
Unknown
Launch date (UTC)
2014-09-17 (12 years ago)
Launch vehicle
Unknown
Launch site
Air Force Eastern Test Range (AFETR)
Object type
Payload
Rocket body
Debris
Shape & HBR
Unknown shape, 1.1 m
Radar Cross Section
Medium (>0.1 m² and <1 m²)

Expand to show TLE details & history
Last TLE update: 2 weeks ago

TLE from 2 weeks ago
0 ATLAS 5 CENTAUR DEB
1 43985U 14055AQ  26251.28398973 -.00000031  00000-0  00000-0 0  9994
2 43985  19.0725 166.4591 4763657 119.0230 296.5520  1.76721536 13495
Epoch: 2026-09-08T06:48Z
TLE epoch observation values (Epoch: 2026-09-08T06:48:56.712Z)
Latitude
0.00005°
Longitude
76.80291°
Altitude
22,724.693 km
Speed
3.688 km/s
True Right ascension
11h 05m 34s
True Declination
0° 00' 00"
Sunlit
Object was in daylight at epoch
Visualization orbit readout
Latitude
Unknown
Longitude
Unknown
Altitude
Unknown
Speed
Unknown
Apparent Right ascension
Unknown
Apparent Declination
Unknown
Sunlit
N/A
Visualization observer readout
Local Sidereal Time
12:19:50
Azimuth
Unknown
Elevation
Unknown
Doppler factor
Unknown
Orbital elements
Apogee altitude
36,289.445 km
Perigee altitude
8,755.112 km
Semi-major axis
28,900.416 km
Eccentricity
0.47637
Inclination
19.0725°
RAAN
166.4591°
Arg. of periapsis
119.023°
True anomaly
240.9035°
Mean anomaly
296.552°
Eccentric anomaly
269.26053°
Mean motion
0.44176 °/min
Orbital period
814.92 mins
BSTAR
0
Loading maneuver chart data...
Computing Atmospheric mass density...

Documentation

Showing up to 5 results
|